CAPE
29 237 41 48 5 8 27 12 10 2 6 0 5 4 0 0 0 0 0 0 0 0 0 0 0 0 0 0 0 0 0 1 3 6 6 8 5 4 0 0 0 0 0 0
81 76 2 50 50 29 29 19 1 5 10 1 4 1 0 0 0 0 0 0 0 0 0 0 0 0 0 0 0 0 0 0 1 2 2 0 1 1 0 0 0 0 0 0
32 0 20 15 42 39 39 17 0 7 10 2 2 0 0 0 0 0 0 0 0 0 0 0 0 0 0 0 0 0 0 0 0 2 1 2 4 8 3 2 0 0 0 0
69 9 41 31 10 21 26 2 20 0 3 14 9 1 0 0 0 0 0 0 0 0 0 0 0 0 0 0 0 0 0 0 0 0 2 3 1 0 0 0 0 0 0 0
7 5 22 47 11 58 4 42 37 14 8 7 5 1 0 0 0 0 0 0 0 0 0 0 0 0 0 0 0 0 1 0 0 0 3 4 2 0 0 0 1 0 0 0
0 36 38 0 3 38 16 39 21 15 5 3 2 27 0 0 0 0 0 0 0 0 0 0 0 0 0 0 0 0 0 0 0 0 0 2 1 0 2 1 0 1 1 0
2 12 30 41 48 9 42 33 18 14 2 3 0 24 0 0 0 0 0 0 0 0 0 0 0 0 0 0 0 0 0 0 0 0 0 0 0 1 0 0 0 1 0 0
15 25 5 1 24 17 0 2 101 1 10 0 0 1 0 0 0 0 0 0 0 0 0 0 0 0 0 0 0 0 0 0 0 1 0 0 0 1 3 7 10 1 0 0
1 0 0 0 0 12 18 9 0 8 0 4 4 0 0 0 0 0 0 0 0 0 0 0 0 0 0 0 0 0 0 0 0 0 10 0 0 0 0 4 9 36 12 0
0 0 0 0 0 13 28 1 18 5 77 18 0 0 0 0 0 0 0 0 0 0 0 0 0 0 0 0 0 0 0 0 0 0 0 5 0 0 0 0 0 7 15 16
14 15 14 16 46 3 36 31 17 69 62 56 37 1 0 0 0 0 0 0 0 0 0 0 0 0 0 0 0 0 0 0 0 0 3 2 4 1 0 0 0 0 0 7
8 26 50 14 13 20 58 35 95 222 28 29 38 3 0 0 0 0 0 0 0 0 0 0 0 0 0 0 0 0 0 0 0 0 0 0 0 0 0 0 0 0 0 5
30 17 48 5 2 5 25 0 39 71 62 46 121 5 0 0 0 0 0 0 0 0 0 0 0 0 0 0 0 0 0 0 0 0 0 0 0 0 0 0 0 0 0 1
36 18 12 9 0 26 65 10 11 47 60 8 60 2 0 0 0 0 0 0 0 0 0 0 0 0 0 0 0 0 0 0 0 0 0 0 0 0 0 0 0 0 0 1
49 38 30 1 1 5 7 3 13 14 24 51 7 1 0 0 0 0 0 0 0 0 0 0 0 0 0 0 0 0 0 0 0 0 0 0 0 0 0 0 0 0 0 0
35 94 5 0 0 0 0 1 2 0 5 0 1 2 0 0 0 0 0 0 0 0 0 0 0 0 0 0 0 0 0 0 0 0 0 0 0 0 0 0 0 0 0 0
34 59 33 3 1 4 14 0 0 0 0 0 0 0 0 0 0 0 0 0 0 0 0 0 0 0 0 0 0 0 0 0 0 0 0 0 0 0 0 0 0 1 1 1
27 0 43 4 9 6 0 0 0 0 0 0 0 0 0 0 0 0 0 0 0 0 0 0 0 0 0 0 0 0 0 0 0 0 0 0 0 0 1 1 1 1 1 0
0 6 4 0 4 0 0 0 0 0 0 0 0 0 0 0 0 0 0 0 0 0 0 0 0 0 0 0 0 0 0 0 0 0 0 0 0 0 0 0 0 0 1 1
0 0 3 3 0 0 0 0 0 0 0 0 0 0 0 0 0 0 0 0 0 0 0 0 0 0 0 0 0 0 0 0 0 0 0 0 0 0 0 0 0 0 0 0
1 15 11 12 11 2 0 0 0 6 0 0 0 0 0 0 0 0 0 0 0 0 0 0 0 0 0 0 0 0 0 0 0 0 0 0 0 0 0 0 0 0 0 0
0 3 4 10 24 4 0 3 0 0 0 0 0 0 0 0 0 0 0 0 0 0 0 0 0 0 0 0 0 0 0 0 0 0 0 0 0 0 0 0 0 0 0 0
0 0 7 7 0 0 0 0 0 0 0 0 0 0 0 0 0 0 0 0 0 0 0 0 0 0 0 0 0 0 0 0 0 0 0 0 0 0 0 0 0 0 0 0
0 0 0 0 0 0 0 0 0 0 0 0 0 0 0 0 0 4 5 4 0 0 0 1 0 0 0 0 0 0 0 0 0 0 0 0 0 0 0 0 0 0 0 0
0 0 0 0 0 0 0 0 0 0 0 0 0 0 0 1 5 6 5 4 2 3 2 2 3 2 0 0 0 0 0 0 0 0 0 0 0 0 0 0 0 0 0 0
0 0 0 0 0 0 0 0 0 0 0 0 0 0 0 1 6 5 8 7 6 2 2 1 2 0 0 0 0 0 0 0 0 0 0 0 0 0 0 0 0 0 0 0
CIN
-1 -8 0 -87 0 0 0 0 0 0 -1 0 0 0 0 0 0 0 0 0 0 0 0 0 0 0 0 0 0 0 0 0 0 0 0 0 0 0 0 0 0 0 0 0
-1 0 0 0 -2 -14 -3 0 0 0 -1 -1 0 0 0 0 0 0 0 0 0 0 0 0 0 0 0 0 0 0 0 0 0 0 0 0 0 0 0 0 0 0 0 0
-1 0 0 0 -1 0 0 0 0 0 0 0 0 0 0 0 0 0 0 0 0 0 0 0 0 0 0 0 0 0 0 0 0 0 0 0 0 0 0 0 0 0 0 0
0 0 -2 0 0 0 0 0 0 -1 0 0 -4 0 0 0 0 0 0 0 0 0 0 0 0 0 0 0 0 0 0 0 0 0 0 0 0 0 0 0 0 0 0 0
0 0 0 0 0 -2 0 0 0 0 0 0 0 0 0 0 0 0 0 0 0 0 0 0 0 0 0 0 0 0 -55 0 0 0 0 0 0 0 0 0 0 0 0 0
0 -3 -1 0 0 0 0 -1 0 0 0 0 0 0 0 0 0 0 0 0 0 0 0 0 0 0 0 0 0 0 0 0 0 0 0 0 0 0 0 0 0 -1 0 0
0 0 0 -1 -1 -21 -4 0 -1 0 0 0 0 0 0 0 0 0 0 0 0 0 0 0 0 0 0 0 0 0 0 0 0 0 0 0 0 -151 0 0 0 0 0 0
0 0 0 0 0 0 0 0 0 0 0 0 -15 0 0 0 0 0 0 0 0 0 0 0 0 0 0 0 0 0 0 0 0 -273 0 0 -251 -267 -284 -201 -194 -1 0 0
0 0 0 0 0 -1 -4 -37 0 0 0 0 0 0 0 0 0 0 0 0 0 0 0 0 0 0 0 0 0 0 0 0 0 -19 -296 0 0 0 0 -272 -216 -196 -232 0
0 0 0 0 0 0 0 0 -34 -31 -2 -3 0 0 0 0 0 0 0 0 0 0 0 0 0 0 0 0 0 0 0 0 0 0 0 -341 0 0 0 0 0 -208 -221 -210
0 -1 -1 -3 0 0 0 0 0 -1 0 0 0 0 0 0 0 0 0 0 0 0 0 0 0 0 0 0 0 0 0 0 0 0 -492 -268 -387 -263 0 0 0 0 -99 -221
0 -1 0 0 -8 0 -1 -1 0 0 -4 -1 0 0 0 0 0 0 0 0 0 0 0 0 0 0 0 0 0 0 0 0 0 0 0 0 0 -3 -13 0 0 0 0 -242
0 -1 0 -1 0 -2 -4 0 0 0 -6 -14 0 0 0 0 0 0 0 0 0 0 0 0 0 0 0 0 0 0 0 0 0 0 0 0 0 0 0 0 0 0 0 -1
-6 0 0 0 0 -4 0 -11 -17 -1 -1 -34 0 0 0 0 0 0 0 0 0 0 0 0 0 0 0 0 0 0 0 0 0 0 0 0 0 0 0 0 0 0 0 -1
-2 0 0 -1 0 0 -12 -1 -1 -4 -1 0 0 0 0 0 0 0 0 0 0 0 0 0 0 0 0 0 0 0 0 0 0 0 0 0 0 0 0 0 0 0 0 0
0 0 0 0 -5 -10 0 0 -1 0 -2 0 0 0 0 0 0 0 0 0 0 0 0 0 0 0 0 0 0 0 0 0 0 0 0 0 0 0 0 0 0 0 0 0
0 -1 -2 0 -1 0 0 0 0 0 0 0 0 0 0 0 0 0 0 0 0 0 0 0 0 0 0 0 0 0 0 0 0 0 0 0 0 0 0 0 0 0 0 0
-4 -3 -3 -1 -4 0 0 0 0 0 0 0 0 0 0 0 0 0 0 0 0 0 0 0 0 0 0 0 0 0 0 0 0 0 0 0 0 0 0 0 0 0 0 0
0 -12 -1 0 0 0 0 0 0 0 0 0 0 0 0 0 0 0 0 0 0 0 0 0 0 0 0 0 0 0 0 0 0 0 0 0 0 0 0 0 0 0 0 0
0 0 0 -1 0 0 0 0 0 0 0 0 0 0 0 0 0 0 0 0 0 0 0 0 0 0 0 0 0 0 0 0 0 0 0 0 0 0 0 0 0 0 0 0
0 0 0 0 0 0 0 0 0 -1 0 0 0 0 0 0 0 0 0 0 0 0 0 0 0 0 0 0 0 0 0 0 0 0 0 0 0 0 0 0 0 0 0 0
0 0 0 0 0 0 0 -12 0 0 0 0 0 0 0 0 0 0 0 0 0 0 0 0 0 0 0 0 0 0 0 0 0 0 0 0 0 0 0 0 0 0 0 0
0 0 0 -1 0 0 0 0 0 0 0 0 0 0 0 0 0 0 0 0 0 0 0 0 0 0 0 0 0 0 0 0 0 0 0 0 0 0 0 0 0 0 0 0
0 0 0 0 0 0 0 0 0 0 0 0 0 0 0 0 0 0 0 0 0 0 0 0 0 0 0 0 0 0 0 0 0 0 0 0 0 0 0 0 0 0 0 0
0 0 0 0 0 0 0 0 0 0 0 0 0 0 0 0 0 0 0 0 0 0 0 0 0 0 0 0 0 0 0 0 0 0 0 0 0 0 0 0 0 0 0 0
0 0 0 0 0 0 0 0 0 0 0 0 0 0 0 0 0 0 0 0 0 0 0 0 0 0 0 0 0 0 0 0 0 0 0 0 0 0 0 0 0 0 0 0
Wind_Speed
9 6 10 11 15 19 15 12 20 19 16 3 19 22 23 21 22 22 20 20 19 20 20 19 18 18 18 18 19 20 20 18 14 12 12 11 11 10 10 9 12 12 12 13
9 14 27 17 12 8 18 15 17 18 13 10 19 24 23 23 21 23 21 23 22 21 21 18 19 19 19 20 19 19 20 19 17 12 11 11 10 10 9 9 10 13 13 12
21 26 18 21 19 15 20 14 13 17 11 17 17 25 25 29 26 25 23 21 23 22 22 22 20 20 18 20 21 21 21 21 19 17 11 10 9 9 10 11 11 12 14 13
16 22 17 20 25 22 22 18 18 16 12 12 10 14 21 24 21 22 21 20 22 22 21 20 20 20 21 20 20 20 21 23 20 20 15 18 13 13 12 11 10 11 15 15
15 15 18 21 19 14 22 14 11 10 14 10 16 9 16 19 24 22 20 19 20 20 18 19 21 20 21 20 19 21 23 22 21 20 19 15 15 12 10 10 13 14 13 16
21 7 15 26 22 18 3 5 7 10 12 13 23 21 13 18 24 23 21 18 18 15 17 17 18 18 19 18 19 19 21 21 21 20 23 22 21 17 13 13 12 11 11 11
25 24 17 9 15 7 8 8 4 5 6 8 17 19 23 15 17 19 17 11 13 12 15 14 15 15 16 17 18 18 21 22 22 23 23 23 22 20 19 17 13 13 11 11
18 19 26 21 20 22 16 10 4 9 5 8 11 10 15 18 17 22 20 13 14 10 10 10 9 12 15 15 16 19 20 22 21 22 23 22 22 14 14 16 12 11 12 12
15 21 11 22 26 21 11 13 20 13 18 6 8 18 16 15 14 12 13 13 15 14 13 12 11 12 14 13 16 19 20 20 21 23 20 21 20 21 17 18 15 13 14 11
14 11 18 13 19 22 27 14 9 8 7 9 13 22 14 8 14 12 15 15 13 12 9 9 10 12 13 13 14 17 19 19 19 19 19 18 19 20 18 16 18 17 15 15
18 13 6 11 17 23 18 22 21 13 13 15 16 15 15 19 19 20 17 14 7 6 7 8 8 7 9 10 12 15 16 18 18 19 18 19 18 19 18 17 18 17 15 15
21 7 12 17 12 13 19 23 23 6 7 9 19 21 13 4 6 7 10 1 4 4 5 6 8 7 6 7 9 11 12 15 16 16 17 18 18 18 18 19 18 16 16 16
15 9 10 6 11 12 10 19 20 18 19 19 8 14 15 19 20 13 7 5 6 4 7 6 5 7 6 6 8 10 11 13 14 15 16 17 18 18 19 19 17 16 16 16
8 15 14 16 13 6 7 16 21 21 16 12 17 24 31 25 17 10 13 7 7 5 5 7 8 6 6 7 8 10 10 10 10 12 14 16 16 18 17 16 17 17 16 15
8 5 15 22 20 21 20 15 11 11 18 19 24 27 38 26 22 21 19 18 18 16 12 12 11 10 10 6 7 8 9 8 10 11 13 16 15 14 14 14 14 13 14 14
10 4 7 6 14 16 21 23 23 23 22 18 23 28 36 28 24 28 22 20 20 22 18 14 15 11 11 10 9 8 10 10 9 12 14 13 13 11 11 11 11 12 12 13
9 6 2 6 8 13 11 23 23 23 24 22 22 28 30 29 20 18 20 22 22 22 16 16 17 19 15 9 10 11 11 8 10 11 10 8 8 10 11 8 7 7 7 5
2 3 1 4 3 9 12 13 16 18 20 20 22 28 31 27 20 18 21 24 23 21 25 25 22 22 17 11 10 9 6 9 10 12 12 11 10 10 7 9 10 7 7 9
9 5 3 4 6 14 22 18 15 17 21 18 21 27 27 18 18 26 21 19 23 24 25 23 20 19 17 17 8 7 8 8 8 12 12 12 13 12 9 10 11 9 8 6
12 10 6 4 6 9 15 8 11 13 19 13 16 19 20 16 15 7 26 27 21 19 17 18 20 19 18 16 6 8 9 9 14 12 11 8 10 12 13 12 10 4 6 8
5 5 13 11 10 13 5 12 11 12 7 19 17 16 18 11 15 22 21 23 22 22 27 22 19 18 18 12 8 11 9 15 13 8 9 10 11 11 10 9 5 8 7 8
10 8 7 8 9 17 13 3 14 9 7 12 19 18 22 22 22 24 23 21 22 24 25 23 22 18 13 8 8 12 14 13 8 8 9 8 8 8 7 9 7 7 9 10
7 11 5 10 9 11 9 7 8 14 14 15 18 23 22 25 24 24 25 23 22 22 19 19 19 22 15 5 8 13 17 8 8 8 9 9 9 9 10 12 12 9 10 9
7 7 6 9 10 9 8 9 13 17 18 17 16 19 25 27 25 22 19 20 21 19 19 19 20 19 18 8 7 14 5 5 7 9 8 9 11 10 9 7 8 9 10 9
3 5 4 10 10 20 12 14 18 25 20 19 20 20 21 24 24 23 20 19 19 20 18 18 17 18 18 14 10 6 4 5 5 5 8 9 8 11 10 9 9 9 8 9
4 2 4 8 10 6 14 19 26 20 22 22 23 25 21 22 23 23 18 16 17 17 16 16 16 17 16 15 11 11 8 4 5 7 6 7 7 9 8 9 6 6 9 13
Wind_Direction
210 220 232 201 217 240 230 255 257 257 241 300 264 259 260 252 252 252 250 255 256 253 243 237 222 214 212 204 207 208 204 197 200 197 197 203 206 204 210 209 208 207 209 205
202 229 226 238 228 230 241 248 259 268 259 208 253 264 268 258 253 253 250 249 248 249 247 246 238 209 207 206 205 205 206 201 202 200 199 204 204 205 211 206 207 209 209 209
223 233 233 234 226 234 236 233 242 246 245 242 271 273 261 255 252 250 246 243 250 244 244 239 230 224 213 210 204 206 203 205 204 202 200 202 211 210 206 208 208 208 207 206
222 240 247 222 230 225 245 234 231 241 261 245 202 277 267 257 250 230 234 236 242 243 238 239 236 222 214 214 212 204 205 205 203 198 202 200 201 203 207 203 206 201 204 208
224 223 223 237 235 241 250 247 221 244 242 260 238 261 260 254 255 249 239 228 237 242 238 238 233 226 218 210 211 207 206 206 204 200 201 203 206 214 203 207 203 203 199 206
243 234 239 231 235 229 223 221 238 250 247 250 238 226 255 239 252 252 246 235 243 240 236 235 237 234 228 210 206 209 211 208 206 203 202 207 207 207 206 205 205 201 201 201
225 233 231 259 223 156 195 155 220 212 212 235 231 227 246 271 261 267 264 239 242 241 243 235 231 236 236 225 207 209 208 209 208 205 205 207 212 209 211 209 208 201 200 204
220 230 222 214 225 214 205 209 236 215 199 249 207 238 232 233 251 252 259 256 258 249 235 247 236 238 234 229 222 210 212 214 210 207 208 208 211 213 214 214 209 211 208 210
198 232 231 210 226 230 232 213 235 270 276 259 224 259 256 263 261 250 253 251 250 254 245 252 252 240 243 227 225 217 215 217 214 211 210 210 208 212 213 215 213 212 212 214
240 265 225 226 219 232 236 238 219 199 213 218 226 250 260 262 258 257 243 248 247 255 246 244 245 243 237 232 220 222 221 219 218 217 212 211 211 212 213 214 213 215 213 210
230 254 243 233 197 222 217 233 236 273 239 258 265 255 265 272 274 265 250 238 264 262 276 280 273 264 255 242 228 216 218 219 219 216 212 213 213 212 211 214 216 215 212 207
211 243 248 240 245 253 254 225 224 227 208 250 252 262 270 295 322 339 331 39 220 266 295 301 281 275 257 247 246 240 227 218 217 219 215 213 214 211 210 214 214 210 211 208
195 231 237 253 242 220 234 244 232 241 258 254 256 253 249 254 263 274 279 287 283 324 300 309 305 291 275 247 226 231 239 227 220 213 214 215 213 210 211 211 210 207 207 206
210 223 223 237 238 233 200 241 243 247 244 248 241 269 271 269 273 267 297 266 253 258 274 291 289 283 267 254 245 232 227 231 238 227 220 217 218 217 214 209 207 205 204 204
185 233 251 246 253 258 268 247 246 256 257 254 260 253 270 262 268 287 287 287 297 295 277 283 277 268 279 246 240 239 242 224 211 225 226 225 220 219 218 212 207 203 202 203
175 217 192 269 264 264 270 268 261 253 237 247 259 270 268 276 283 285 296 300 296 292 292 292 293 275 258 253 238 224 222 220 213 214 221 221 217 211 208 204 199 197 199 198
205 226 149 245 235 239 254 247 257 259 254 251 244 251 267 272 264 269 278 273 270 275 284 285 280 276 270 240 233 231 228 200 201 220 218 213 211 203 198 180 165 171 170 148
121 130 202 289 346 252 250 267 263 263 256 251 250 258 261 270 287 281 269 265 271 273 268 263 262 267 272 268 218 237 216 208 206 210 211 203 201 199 179 171 179 169 161 176
212 198 246 251 247 284 285 277 261 245 260 247 244 255 266 279 289 264 264 266 269 271 271 271 272 274 277 269 232 205 205 202 207 219 214 197 203 202 182 190 186 178 160 163
234 230 226 203 241 254 270 316 320 256 262 349 308 291 347 332 258 303 344 341 330 313 292 282 273 267 265 263 206 199 216 206 221 217 208 197 186 188 192 189 181 149 162 155
153 204 223 233 248 262 279 237 246 237 291 338 351 344 339 320 315 331 324 327 327 323 324 296 287 279 259 254 192 221 219 225 226 192 176 181 185 184 185 166 155 159 150 142
180 188 197 212 237 260 351 356 231 9 21 342 331 332 324 314 317 318 322 325 323 328 328 328 313 277 265 234 179 232 231 238 202 176 181 182 168 159 148 146 132 150 152 150
237 223 243 211 225 104 39 63 40 20 353 350 330 326 322 313 319 323 320 321 323 322 323 323 319 309 300 275 199 237 247 198 174 178 182 167 159 157 159 161 159 159 168 167
263 358 258 298 265 27 33 58 14 359 343 337 328 323 317 314 320 316 319 320 319 324 329 326 322 314 307 293 252 251 293 161 170 184 172 167 168 161 158 163 166 167 176 177
327 335 346 271 299 334 158 9 357 333 336 333 324 318 313 310 309 315 317 318 317 318 328 327 325 320 318 319 312 328 281 164 186 172 171 170 172 169 165 176 178 176 182 181
30 12 261 278 352 316 288 320 327 334 332 332 328 321 321 312 311 314 313 311 309 318 323 324 326 324 327 325 343 339 322 307 167 170 170 177 176 174 175 165 139 135 145 157